Time,TemperatureF,DewpointF,PressureIn,WindDirection,WindDirectionDegrees,WindSpeedMPH,WindSpeedGustMPH,Humidity,HourlyPrecipIn,Conditions,Clouds,dailyrainin,SoftwareType,DateUTC
2013-03-21 00:00:00,37.4,20.0,29.76,SE,131,0.8,28.8,49,0.00,,---,0.00,VWS V14.01,2013-03-21 04:00:00,
2013-03-21 00:01:00,37.2,21.8,29.75,North,359,9.0,12.0,53,0.00,,---,0.00,VWS V14.01,2013-03-21 04:01:00,
2013-03-21 00:02:00,37.6,22.4,29.75,North,350,6.3,12.0,54,0.00,,---,0.00,VWS V14.01,2013-03-21 04:02:00,
2013-03-21 00:05:00,37.7,20.0,29.76,NNE,25,2.9,3.0,48,0.00,,---,0.00,VWS V14.01,2013-03-21 04:05:00,
2013-03-21 00:10:00,38.0,21.3,29.76,NNE,13,2.7,2.8,50,0.00,,---,0.00,VWS V14.01,2013-03-21 04:10:00,
2013-03-21 00:11:00,30.9,16.1,29.68,North,350,7.1,133.3,54,0.00,,---,0.00,VWS V14.01,2013-03-21 04:11:00,
2013-03-21 00:15:00,37.5,21.2,29.76,North,3,2.7,2.9,51,0.00,,---,0.00,VWS V14.01,2013-03-21 04:15:00,
2013-03-21 00:20:00,37.4,23.0,29.76,NNE,20,2.0,2.1,56,0.00,,---,0.00,VWS V14.01,2013-03-21 04:20:00,
2013-03-21 00:25:00,37.6,20.4,29.75,NE,35,2.2,2.6,50,0.00,,---,0.00,VWS V14.01,2013-03-21 04:25:00,
2013-03-21 00:30:00,37.6,20.6,29.75,NNE,25,4.3,4.4,50,0.00,,---,0.00,VWS V14.01,2013-03-21 04:30:00,
2013-03-21 00:35:00,37.4,21.0,29.75,NNE,25,5.9,6.5,51,0.00,,---,0.00,VWS V14.01,2013-03-21 04:35:00,
2013-03-21 00:40:00,37.9,21.3,29.75,NNE,18,3.0,3.8,51,0.00,,---,0.00,VWS V14.01,2013-03-21 04:40:00,
2013-03-21 00:45:00,38.1,22.3,29.75,North,8,2.4,2.4,52,0.00,,---,0.00,VWS V14.01,2013-03-21 04:45:00,
2013-03-21 00:50:00,37.6,23.2,29.75,North,356,4.3,4.3,56,0.00,,---,0.00,VWS V14.01,2013-03-21 04:50:00,
2013-03-21 00:55:00,37.2,22.1,29.75,North,6,7.3,7.3,54,0.00,,---,0.00,VWS V14.01,2013-03-21 04:55:00,
2013-03-21 01:00:00,37.3,22.2,29.75,NNE,14,8.6,12.0,54,0.00,,---,0.00,VWS V14.01,2013-03-21 05:00:00,
2013-03-21 01:05:00,37.7,22.8,29.75,NNE,30,8.8,12.0,54,0.00,,---,0.00,VWS V14.01,2013-03-21 05:05:00,
2013-03-21 01:10:00,37.3,23.2,29.75,NNW,345,8.6,12.5,56,0.00,,---,0.00,VWS V14.01,2013-03-21 05:10:00,
2013-03-21 01:15:00,37.2,23.6,29.74,North,359,11.7,14.4,58,0.00,,---,0.00,VWS V14.01,2013-03-21 05:15:00,
2013-03-21 01:16:00,35.4,14.4,29.62,West,267,9.6,133.3,42,0.00,,---,0.00,VWS V14.01,2013-03-21 05:16:00,
2013-03-21 01:20:00,37.2,23.9,29.74,NNE,15,11.6,17.6,58,0.00,,---,0.00,VWS V14.01,2013-03-21 05:20:00,
2013-03-21 01:25:00,36.6,24.0,29.74,NNE,18,10.7,17.6,60,0.00,,---,0.00,VWS V14.01,2013-03-21 05:25:00,
2013-03-21 01:30:00,36.3,24.4,29.73,NNE,17,11.1,17.6,62,0.00,,---,0.00,VWS V14.01,2013-03-21 05:30:00,
2013-03-21 01:35:00,35.5,24.4,29.73,North,4,7.8,17.6,64,0.00,,---,0.00,VWS V14.01,2013-03-21 05:35:00,
2013-03-21 01:40:00,35.5,24.4,29.74,North,4,8.7,17.6,64,0.00,,---,0.00,VWS V14.01,2013-03-21 05:40:00,
2013-03-21 01:45:00,35.6,24.7,29.74,North,349,7.5,17.6,64,0.00,,---,0.00,VWS V14.01,2013-03-21 05:45:00,
2013-03-21 01:50:00,35.7,24.9,29.74,North,10,7.1,17.6,64,0.00,,---,0.00,VWS V14.01,2013-03-21 05:50:00,
2013-03-21 01:55:00,35.3,24.6,29.73,North,354,8.9,17.6,65,0.00,,---,0.00,VWS V14.01,2013-03-21 05:55:00,
2013-03-21 02:00:00,34.7,24.2,29.74,North,7,6.5,17.6,65,0.00,,---,0.00,VWS V14.01,2013-03-21 06:00:00,
2013-03-21 02:05:00,34.9,24.4,29.73,North,359,6.6,17.6,65,0.00,,---,0.00,VWS V14.01,2013-03-21 06:05:00,
2013-03-21 02:10:00,34.6,24.2,29.73,North,354,7.0,17.6,66,0.00,,---,0.00,VWS V14.01,2013-03-21 06:10:00,
2013-03-21 02:15:00,34.5,24.2,29.73,NNW,338,8.9,17.6,66,0.00,,---,0.00,VWS V14.01,2013-03-21 06:15:00,
2013-03-21 02:20:00,34.6,24.3,29.73,North,350,7.6,17.6,66,0.00,,---,0.00,VWS V14.01,2013-03-21 06:20:00,
2013-03-21 02:25:00,34.9,24.6,29.73,NNW,345,7.8,17.6,66,0.00,,---,0.00,VWS V14.01,2013-03-21 06:25:00,
2013-03-21 02:30:00,34.4,24.0,29.73,NNW,346,9.3,17.6,65,0.00,,---,0.00,VWS V14.01,2013-03-21 06:30:00,
2013-03-21 02:35:00,34.6,24.2,29.73,NNW,342,10.9,17.6,65,0.00,,---,0.00,VWS V14.01,2013-03-21 06:35:00,
2013-03-21 02:40:00,34.3,24.0,29.73,North,349,7.6,17.6,66,0.00,,---,0.00,VWS V14.01,2013-03-21 06:40:00,
2013-03-21 02:45:00,34.3,24.1,29.73,North,359,9.8,17.6,66,0.00,,---,0.00,VWS V14.01,2013-03-21 06:45:00,
2013-03-21 02:50:00,34.4,24.4,29.73,NNW,343,7.8,17.6,66,0.00,,---,0.00,VWS V14.01,2013-03-21 06:50:00,
2013-03-21 02:55:00,33.9,23.9,29.73,North,350,6.9,17.6,66,0.00,,---,0.00,VWS V14.01,2013-03-21 06:55:00,
2013-03-21 02:59:00,34.2,24.4,29.72,NNW,338,9.4,17.6,67,0.00,,---,0.00,VWS V14.01,2013-03-21 06:59:00,
2013-03-21 03:04:00,33.8,24.2,29.72,North,359,8.8,17.6,67,0.00,,---,0.00,VWS V14.01,2013-03-21 07:04:00,
2013-03-21 03:09:00,33.6,24.2,29.73,NNW,338,11.1,17.6,68,0.00,,---,0.00,VWS V14.01,2013-03-21 07:09:00,
2013-03-21 03:14:00,33.8,24.6,29.73,North,349,8.6,17.6,69,0.00,,---,0.00,VWS V14.01,2013-03-21 07:14:00,
2013-03-21 03:19:00,33.7,24.7,29.73,North,359,9.7,17.6,69,0.00,,---,0.00,VWS V14.01,2013-03-21 07:19:00,
2013-03-21 03:24:00,33.7,24.9,29.73,NNW,330,8.5,17.6,70,0.00,,---,0.00,VWS V14.01,2013-03-21 07:24:00,
2013-03-21 03:29:00,33.4,24.9,29.73,NNW,332,7.6,17.6,71,0.00,,---,0.00,VWS V14.01,2013-03-21 07:29:00,
2013-03-21 03:34:00,33.3,25.2,29.73,NNW,347,6.1,17.6,72,0.00,,---,0.00,VWS V14.01,2013-03-21 07:34:00,
2013-03-21 03:37:00,31.9,16.4,29.67,West,273,9.9,133.3,52,0.00,,---,0.00,VWS V14.01,2013-03-21 07:37:00,
2013-03-21 03:39:00,32.9,24.9,29.73,North,359,5.9,17.6,72,0.00,,---,0.00,VWS V14.01,2013-03-21 07:39:00,
2013-03-21 03:44:00,32.8,25.0,29.72,North,359,5.0,17.6,73,0.00,,---,0.00,VWS V14.01,2013-03-21 07:44:00,
2013-03-21 03:49:00,32.9,25.1,29.71,NNE,15,5.6,17.6,73,0.00,,---,0.00,VWS V14.01,2013-03-21 07:49:00,
2013-03-21 03:54:00,32.9,25.2,29.71,NNW,345,9.7,17.6,73,0.00,,---,0.00,VWS V14.01,2013-03-21 07:54:00,
2013-03-21 03:59:00,32.1,24.6,29.72,North,350,8.7,17.6,74,0.00,,---,0.00,VWS V14.01,2013-03-21 07:59:00,
2013-03-21 04:01:00,32.1,26.7,29.70,NE,42,6.2,17.6,80,0.00,,---,0.00,VWS V14.01,2013-03-21 08:01:00,
2013-03-21 04:02:00,31.8,26.4,29.70,North,11,5.3,17.6,80,0.00,,---,0.00,VWS V14.01,2013-03-21 08:02:00,
2013-03-21 04:03:00,31.3,25.9,29.71,ENE,58,6.1,17.6,80,0.00,,---,0.00,VWS V14.01,2013-03-21 08:03:00,
2013-03-21 04:04:00,33.1,25.7,29.72,North,349,8.4,17.6,74,0.00,,---,0.00,VWS V14.01,2013-03-21 08:04:00,
2013-03-21 04:09:00,32.5,25.3,29.71,NNW,347,8.5,17.6,74,0.00,,---,0.00,VWS V14.01,2013-03-21 08:09:00,
2013-03-21 04:14:00,32.5,25.5,29.71,NNW,345,8.8,17.6,75,0.00,,---,0.00,VWS V14.01,2013-03-21 08:14:00,
2013-03-21 04:19:00,32.2,25.4,29.71,NNW,338,9.8,17.6,76,0.00,,---,0.00,VWS V14.01,2013-03-21 08:19:00,
2013-03-21 04:24:00,32.4,25.7,29.71,NNE,21,7.0,17.6,76,0.00,,---,0.00,VWS V14.01,2013-03-21 08:24:00,
2013-03-21 04:29:00,31.9,25.3,29.70,NNW,342,6.5,17.6,76,0.00,,---,0.00,VWS V14.01,2013-03-21 08:29:00,
2013-03-21 04:34:00,32.3,25.9,29.70,North,359,6.3,17.6,77,0.00,,---,0.00,VWS V14.01,2013-03-21 08:34:00,
2013-03-21 04:39:00,31.6,25.4,29.70,North,8,7.5,17.6,77,0.00,,---,0.00,VWS V14.01,2013-03-21 08:39:00,
2013-03-21 04:44:00,31.9,26.0,29.70,NNE,13,7.0,17.6,78,0.00,,---,0.00,VWS V14.01,2013-03-21 08:44:00,
2013-03-21 04:49:00,31.6,25.9,29.70,NE,38,5.3,17.6,79,0.00,,---,0.00,VWS V14.01,2013-03-21 08:49:00,
2013-03-21 04:54:00,31.4,25.8,29.70,NNE,25,5.4,17.6,79,0.00,,---,0.00,VWS V14.01,2013-03-21 08:54:00,
2013-03-21 04:59:00,32.1,26.7,29.70,NNE,31,6.2,17.6,80,0.00,,---,0.00,VWS V14.01,2013-03-21 08:59:00,
2013-03-21 05:04:00,31.5,26.3,29.70,NNW,346,5.1,17.6,81,0.00,,---,0.00,VWS V14.01,2013-03-21 09:04:00,
2013-03-21 05:09:00,31.4,26.4,29.70,North,359,5.8,17.6,82,0.00,,---,0.00,VWS V14.01,2013-03-21 09:09:00,
2013-03-21 05:14:00,31.1,26.2,29.70,NNE,22,4.0,17.6,82,0.00,,---,0.00,VWS V14.01,2013-03-21 09:14:00,
2013-03-21 05:19:00,31.4,26.7,29.70,NNW,347,5.5,17.6,82,0.00,,---,0.00,VWS V14.01,2013-03-21 09:19:00,
2013-03-21 05:24:00,31.2,26.8,29.70,NNE,21,7.6,17.6,83,0.00,,---,0.00,VWS V14.01,2013-03-21 09:24:00,
2013-03-21 05:29:00,30.7,26.4,29.70,ENE,58,7.3,17.6,84,0.00,,---,0.00,VWS V14.01,2013-03-21 09:29:00,
2013-03-21 05:30:00,31.1,27.5,29.71,North,359,0.2,17.6,86,67.77,,---,0.00,VWS V14.01,2013-03-21 09:30:00,
2013-03-21 05:34:00,31.3,26.9,29.70,North,359,0.0,17.6,84,0.00,,---,0.00,VWS V14.01,2013-03-21 09:34:00,
2013-03-21 05:39:00,31.3,26.9,29.70,NE,41,1.6,17.6,84,0.00,,---,0.00,VWS V14.01,2013-03-21 09:39:00,
2013-03-21 05:44:00,30.9,26.8,29.70,North,359,0.6,17.6,84,0.00,,---,0.00,VWS V14.01,2013-03-21 09:44:00,
2013-03-21 05:49:00,30.7,27.1,29.70,North,10,5.8,17.6,86,0.00,,---,0.00,VWS V14.01,2013-03-21 09:49:00,
2013-03-21 05:54:00,30.8,27.3,29.70,North,359,6.3,17.6,87,0.00,,---,0.00,VWS V14.01,2013-03-21 09:54:00,
2013-03-21 05:59:00,31.4,27.9,29.70,NE,46,6.6,17.6,87,0.00,,---,0.00,VWS V14.01,2013-03-21 09:59:00,
2013-03-21 06:04:00,31.2,27.8,29.71,NE,52,8.4,17.6,87,0.00,,---,0.00,VWS V14.01,2013-03-21 10:04:00,
2013-03-21 06:09:00,31.2,27.7,29.71,ESE,114,7.4,17.6,87,0.00,,---,0.00,VWS V14.01,2013-03-21 10:09:00,
2013-03-21 06:14:00,30.9,27.5,29.71,North,3,5.6,17.6,87,0.00,,---,0.00,VWS V14.01,2013-03-21 10:14:00,
2013-03-21 06:19:00,30.7,27.3,29.71,NNW,332,7.4,17.6,87,0.00,,---,0.00,VWS V14.01,2013-03-21 10:19:00,
2013-03-21 06:24:00,31.0,27.4,29.71,North,359,0.0,17.6,86,0.00,,---,0.00,VWS V14.01,2013-03-21 10:24:00,
2013-03-21 06:29:00,30.8,27.3,29.70,North,359,0.0,17.6,86,67.93,,---,0.00,VWS V14.01,2013-03-21 10:29:00,
2013-03-21 06:34:00,30.8,27.1,29.70,NNE,32,6.9,17.6,86,0.00,,---,0.00,VWS V14.01,2013-03-21 10:34:00,
2013-03-21 06:39:00,31.2,27.4,29.71,NNW,336,0.0,133.3,86,0.00,,---,0.00,VWS V14.01,2013-03-21 10:39:00,
2013-03-21 06:44:00,31.2,27.2,29.70,North,359,0.5,133.3,85,0.00,,---,0.00,VWS V14.01,2013-03-21 10:44:00,
2013-03-21 06:49:00,30.9,26.3,29.71,North,359,1.3,133.3,83,0.00,,---,0.00,VWS V14.01,2013-03-21 10:49:00,
2013-03-21 06:54:00,31.0,26.0,29.71,North,359,4.7,133.3,81,0.00,,---,0.00,VWS V14.01,2013-03-21 10:54:00,
2013-03-21 06:59:00,31.1,26.0,29.71,North,359,8.1,133.3,81,0.00,,---,0.00,VWS V14.01,2013-03-21 10:59:00,
2013-03-21 07:04:00,30.9,25.7,29.71,North,359,0.9,133.3,81,0.00,,---,0.00,VWS V14.01,2013-03-21 11:04:00,
2013-03-21 07:09:00,31.0,25.4,29.71,NNW,342,0.5,133.3,80,0.00,,---,0.00,VWS V14.01,2013-03-21 11:09:00,
2013-03-21 07:14:00,31.6,26.1,29.71,North,359,1.1,133.3,80,0.00,,---,0.00,VWS V14.01,2013-03-21 11:14:00,
2013-03-21 07:19:00,31.3,25.9,29.71,North,359,8.9,133.3,80,0.00,,---,0.00,VWS V14.01,2013-03-21 11:19:00,
2013-03-21 07:24:00,31.2,26.1,29.71,North,359,0.0,133.3,81,0.00,,---,0.00,VWS V14.01,2013-03-21 11:24:00,
2013-03-21 07:29:00,30.8,25.8,29.71,North,359,0.0,133.3,81,0.00,,---,0.00,VWS V14.01,2013-03-21 11:29:00,
2013-03-21 07:34:00,30.9,25.9,29.71,North,359,1.1,133.3,82,0.00,,---,0.00,VWS V14.01,2013-03-21 11:34:00,
2013-03-21 07:39:00,31.2,26.2,29.71,North,359,0.2,133.3,82,0.00,,---,0.00,VWS V14.01,2013-03-21 11:39:00,
2013-03-21 07:44:00,31.2,26.3,29.71,North,359,3.9,133.3,82,0.00,,---,0.00,VWS V14.01,2013-03-21 11:44:00,
2013-03-21 07:49:00,31.4,26.4,29.71,North,359,0.0,133.3,82,0.00,,---,0.00,VWS V14.01,2013-03-21 11:49:00,
2013-03-21 07:54:00,31.5,26.5,29.71,North,359,0.0,133.3,82,0.00,,---,0.00,VWS V14.01,2013-03-21 11:54:00,
2013-03-21 07:59:00,31.6,25.8,29.71,North,359,1.8,133.3,79,0.00,,---,0.00,VWS V14.01,2013-03-21 11:59:00,
2013-03-21 08:04:00,31.4,25.1,29.71,NNE,14,5.3,133.3,77,0.00,,---,0.00,VWS V14.01,2013-03-21 12:04:00,
2013-03-21 08:09:00,31.5,24.0,29.71,North,359,0.6,133.3,74,0.00,,---,0.00,VWS V14.01,2013-03-21 12:09:00,
2013-03-21 08:14:00,31.6,23.4,29.71,North,359,0.0,133.3,71,0.00,,---,0.00,VWS V14.01,2013-03-21 12:14:00,
2013-03-21 08:19:00,31.6,23.0,29.71,NNE,31,10.7,133.3,70,0.00,,---,0.00,VWS V14.01,2013-03-21 12:19:00,
2013-03-21 08:24:00,32.0,23.3,29.71,North,359,3.3,133.3,70,0.00,,---,0.00,VWS V14.01,2013-03-21 12:24:00,
2013-03-21 08:29:00,31.5,22.5,29.71,North,11,13.3,133.3,69,0.00,,---,0.00,VWS V14.01,2013-03-21 12:29:00,
2013-03-21 08:34:00,31.3,22.1,29.71,West,276,9.6,133.3,68,0.00,,---,0.00,VWS V14.01,2013-03-21 12:34:00,
2013-03-21 08:39:00,31.3,22.4,29.71,WSW,257,14.2,133.3,69,0.00,,---,0.00,VWS V14.01,2013-03-21 12:39:00,
2013-03-21 08:44:00,31.6,22.4,29.70,North,357,11.2,133.3,68,0.00,,---,0.00,VWS V14.01,2013-03-21 12:44:00,
2013-03-21 08:49:00,31.6,22.2,29.70,North,6,14.0,133.3,68,0.00,,---,0.00,VWS V14.01,2013-03-21 12:49:00,
2013-03-21 08:54:00,31.0,21.4,29.70,North,359,0.4,133.3,67,0.00,,---,0.00,VWS V14.01,2013-03-21 12:54:00,
2013-03-21 08:59:00,31.3,21.6,29.70,NE,37,8.6,133.3,67,0.00,,---,0.00,VWS V14.01,2013-03-21 12:59:00,
2013-03-21 09:04:00,30.9,20.1,29.70,North,359,2.5,133.3,64,0.00,,---,0.00,VWS V14.01,2013-03-21 13:04:00,
2013-03-21 09:09:00,30.9,20.4,29.70,NNE,13,10.8,133.3,65,0.00,,---,0.00,VWS V14.01,2013-03-21 13:09:00,
2013-03-21 09:14:00,30.8,20.9,29.70,WNW,300,11.2,133.3,66,0.00,,---,0.00,VWS V14.01,2013-03-21 13:14:00,
2013-03-21 09:19:00,31.1,21.8,29.70,North,354,0.0,133.3,68,0.00,,---,0.00,VWS V14.01,2013-03-21 13:19:00,
2013-03-21 09:24:00,30.9,21.3,29.70,North,359,1.0,133.3,67,0.00,,---,0.00,VWS V14.01,2013-03-21 13:24:00,
2013-03-21 09:29:00,29.9,20.6,29.70,North,359,1.2,133.3,68,0.00,,---,0.00,VWS V14.01,2013-03-21 13:29:00,
2013-03-21 09:34:00,30.3,21.4,29.70,North,359,0.2,133.3,69,0.00,,---,0.00,VWS V14.01,2013-03-21 13:34:00,
2013-03-21 09:39:00,29.8,21.7,29.70,North,359,0.0,133.3,72,0.00,,---,0.00,VWS V14.01,2013-03-21 13:39:00,
2013-03-21 09:44:00,29.4,22.0,29.70,North,359,4.9,133.3,73,0.00,,---,0.00,VWS V14.01,2013-03-21 13:44:00,
2013-03-21 09:49:00,29.2,22.2,29.70,North,359,0.0,133.3,75,0.00,,---,0.00,VWS V14.01,2013-03-21 13:49:00,
2013-03-21 09:54:00,29.7,22.7,29.70,North,359,0.0,133.3,75,0.00,,---,0.00,VWS V14.01,2013-03-21 13:54:00,
2013-03-21 09:59:00,29.3,22.6,29.70,North,359,0.0,133.3,76,0.00,,---,0.00,VWS V14.01,2013-03-21 13:59:00,
2013-03-21 10:04:00,29.3,21.9,29.70,North,359,0.0,133.3,73,0.00,,---,0.00,VWS V14.01,2013-03-21 14:04:00,
2013-03-21 10:09:00,29.8,22.4,29.70,North,359,0.4,133.3,74,0.00,,---,0.00,VWS V14.01,2013-03-21 14:09:00,
2013-03-21 10:14:00,29.5,21.4,29.70,North,359,0.0,133.3,71,0.00,,---,0.00,VWS V14.01,2013-03-21 14:14:00,
2013-03-21 10:19:00,29.8,21.5,29.70,North,359,0.0,133.3,71,0.00,,---,0.00,VWS V14.01,2013-03-21 14:19:00,
2013-03-21 10:24:00,29.6,20.7,29.70,North,359,0.0,133.3,69,0.00,,---,0.00,VWS V14.01,2013-03-21 14:24:00,
2013-03-21 10:29:00,30.3,21.5,29.70,North,359,0.0,133.3,69,0.00,,---,0.00,VWS V14.01,2013-03-21 14:29:00,
2013-03-21 10:34:00,30.1,20.5,29.69,North,359,1.2,133.3,67,0.00,,---,0.00,VWS V14.01,2013-03-21 14:34:00,
2013-03-21 10:39:00,30.4,20.7,29.69,North,359,0.0,133.3,67,0.00,,---,0.00,VWS V14.01,2013-03-21 14:39:00,
2013-03-21 10:44:00,31.3,21.5,29.69,North,359,0.0,133.3,66,0.00,,---,0.00,VWS V14.01,2013-03-21 14:44:00,
2013-03-21 10:49:00,30.1,21.2,29.69,NE,41,10.3,133.3,69,0.00,,---,0.00,VWS V14.01,2013-03-21 14:49:00,
2013-03-21 10:54:00,30.2,21.2,29.69,ENE,72,5.6,133.3,69,0.00,,---,0.00,VWS V14.01,2013-03-21 14:54:00,
2013-03-21 10:59:00,30.1,20.2,29.69,NNW,342,14.0,133.3,66,0.00,,---,0.00,VWS V14.01,2013-03-21 14:59:00,
2013-03-21 11:04:00,30.6,20.2,29.69,North,359,8.7,133.3,65,0.00,,---,0.00,VWS V14.01,2013-03-21 15:04:00,
2013-03-21 11:09:00,31.2,21.0,29.69,North,7,0.6,133.3,65,0.00,,---,0.00,VWS V14.01,2013-03-21 15:09:00,
2013-03-21 11:14:00,30.9,20.8,29.69,NNW,329,9.1,133.3,66,0.00,,---,0.00,VWS V14.01,2013-03-21 15:14:00,
2013-03-21 11:19:00,31.3,21.0,29.69,WSW,252,9.5,133.3,65,0.00,,---,0.00,VWS V14.01,2013-03-21 15:19:00,
2013-03-21 11:24:00,31.2,19.8,29.68,NW,305,10.3,133.3,62,0.00,,---,0.00,VWS V14.01,2013-03-21 15:24:00,
2013-03-21 11:29:00,31.0,18.7,29.68,East,101,2.4,133.3,60,0.00,,---,0.00,VWS V14.01,2013-03-21 15:29:00,
2013-03-21 11:34:00,30.8,18.8,29.68,North,349,9.3,133.3,60,0.00,,---,0.00,VWS V14.01,2013-03-21 15:34:00,
2013-03-21 11:39:00,31.2,18.4,29.68,North,359,3.5,133.3,58,0.00,,---,0.00,VWS V14.01,2013-03-21 15:39:00,
2013-03-21 11:44:00,31.7,18.5,29.68,ENE,62,9.9,133.3,58,0.00,,---,0.00,VWS V14.01,2013-03-21 15:44:00,
2013-03-21 11:49:00,31.6,18.0,29.67,ENE,60,13.1,133.3,57,0.00,,---,0.00,VWS V14.01,2013-03-21 15:49:00,
2013-03-21 11:54:00,31.4,17.4,29.67,ENE,59,12.1,133.3,56,0.00,,---,0.00,VWS V14.01,2013-03-21 15:54:00,
2013-03-21 11:59:00,30.9,17.9,29.67,North,359,4.4,133.3,58,0.00,,---,0.00,VWS V14.01,2013-03-21 15:59:00,
2013-03-21 12:04:00,31.0,17.4,29.67,North,3,1.6,133.3,57,0.00,,---,0.00,VWS V14.01,2013-03-21 16:04:00,
2013-03-21 12:09:00,31.4,18.0,29.66,North,359,1.5,133.3,57,0.00,,---,0.00,VWS V14.01,2013-03-21 16:09:00,
2013-03-21 12:14:00,31.6,18.1,29.66,North,359,0.0,133.3,57,0.00,,---,0.00,VWS V14.01,2013-03-21 16:14:00,
2013-03-21 12:19:00,31.6,18.8,29.66,North,359,3.0,133.3,59,0.00,,---,0.00,VWS V14.01,2013-03-21 16:19:00,
2013-03-21 12:24:00,31.5,18.6,29.66,North,359,0.0,133.3,58,0.00,,---,0.00,VWS V14.01,2013-03-21 16:24:00,
2013-03-21 12:29:00,31.9,18.5,29.66,North,359,0.0,133.3,57,0.00,,---,0.00,VWS V14.01,2013-03-21 16:29:00,
2013-03-21 12:34:00,31.5,18.5,29.66,East,87,8.4,133.3,58,0.00,,---,0.00,VWS V14.01,2013-03-21 16:34:00,
2013-03-21 12:39:00,31.2,17.6,29.65,North,359,0.0,133.3,57,0.00,,---,0.00,VWS V14.01,2013-03-21 16:39:00,
2013-03-21 12:44:00,31.3,18.0,29.66,North,359,0.0,133.3,58,0.00,,---,0.00,VWS V14.01,2013-03-21 16:44:00,
2013-03-21 12:49:00,31.5,18.4,29.66,North,359,9.6,133.3,58,0.00,,---,0.00,VWS V14.01,2013-03-21 16:49:00,
2013-03-21 12:54:00,31.9,18.6,29.65,North,357,12.1,133.3,57,0.00,,---,0.00,VWS V14.01,2013-03-21 16:54:00,
2013-03-21 12:59:00,31.2,18.1,29.65,NNW,343,11.7,133.3,58,0.00,,---,0.00,VWS V14.01,2013-03-21 16:59:00,
2013-03-21 13:03:00,30.7,19.1,29.65,NW,304,7.5,133.3,62,0.00,,---,0.00,VWS V14.01,2013-03-21 17:03:00,
2013-03-21 13:08:00,29.6,20.5,29.66,North,352,13.1,133.3,68,0.00,,---,0.00,VWS V14.01,2013-03-21 17:08:00,
2013-03-21 13:13:00,29.8,22.2,29.66,NNE,14,10.5,133.3,73,0.00,,---,0.00,VWS V14.01,2013-03-21 17:13:00,
2013-03-21 13:18:00,30.3,23.1,29.65,NNE,13,7.1,133.3,74,0.00,,---,0.00,VWS V14.01,2013-03-21 17:18:00,
2013-03-21 13:23:00,29.8,22.6,29.65,North,359,0.0,133.3,74,0.00,,---,0.00,VWS V14.01,2013-03-21 17:23:00,
2013-03-21 13:28:00,29.9,22.7,29.65,North,359,0.0,133.3,74,0.00,,---,0.00,VWS V14.01,2013-03-21 17:28:00,
2013-03-21 13:33:00,29.4,23.0,29.65,North,359,0.0,133.3,77,0.00,,---,0.00,VWS V14.01,2013-03-21 17:33:00,
2013-03-21 13:38:00,29.6,23.2,29.65,North,359,0.0,133.3,77,0.00,,---,0.00,VWS V14.01,2013-03-21 17:38:00,
2013-03-21 13:43:00,29.5,22.9,29.65,North,359,0.0,133.3,76,0.00,,---,0.00,VWS V14.01,2013-03-21 17:43:00,
2013-03-21 13:48:00,29.4,22.2,29.65,North,3,11.7,133.3,74,0.00,,---,0.00,VWS V14.01,2013-03-21 17:48:00,
2013-03-21 13:53:00,28.9,22.5,29.64,NNW,335,8.1,133.3,76,0.00,,---,0.00,VWS V14.01,2013-03-21 17:53:00,
2013-03-21 13:58:00,29.3,22.6,29.64,NNW,340,8.4,133.3,76,0.00,,---,0.00,VWS V14.01,2013-03-21 17:58:00,
2013-03-21 14:03:00,29.3,22.6,29.65,North,359,0.0,133.3,76,0.00,,---,0.00,VWS V14.01,2013-03-21 18:03:00,
2013-03-21 14:08:00,29.3,22.8,29.64,North,359,0.0,133.3,76,0.00,,---,0.00,VWS V14.01,2013-03-21 18:08:00,
2013-03-21 14:13:00,29.2,23.6,29.64,North,359,0.2,133.3,79,0.00,,---,0.00,VWS V14.01,2013-03-21 18:13:00,
2013-03-21 14:18:00,29.6,23.9,29.64,North,359,0.0,133.3,79,0.00,,---,0.00,VWS V14.01,2013-03-21 18:18:00,
2013-03-21 14:23:00,29.1,23.2,29.64,ENE,77,0.0,133.3,78,0.00,,---,0.00,VWS V14.01,2013-03-21 18:23:00,
2013-03-21 14:28:00,29.1,23.7,29.64,NE,38,0.0,133.3,80,0.00,,---,0.00,VWS V14.01,2013-03-21 18:28:00,
2013-03-21 14:33:00,28.9,23.6,29.64,NE,38,0.0,133.3,80,0.00,,---,0.00,VWS V14.01,2013-03-21 18:33:00,
2013-03-21 14:38:00,29.4,24.1,29.63,NE,38,0.0,133.3,80,0.00,,---,0.00,VWS V14.01,2013-03-21 18:38:00,
2013-03-21 14:43:00,29.1,24.2,29.63,NE,38,0.0,133.3,82,0.00,,---,0.00,VWS V14.01,2013-03-21 18:43:00,
2013-03-21 14:48:00,29.4,24.6,29.63,NE,38,0.0,133.3,82,0.00,,---,0.00,VWS V14.01,2013-03-21 18:48:00,
2013-03-21 14:53:00,29.0,25.2,29.63,NE,38,0.0,133.3,86,0.00,,---,0.00,VWS V14.01,2013-03-21 18:53:00,
2013-03-21 14:58:00,29.5,26.0,29.62,NE,38,0.0,133.3,86,0.00,,---,0.00,VWS V14.01,2013-03-21 18:58:00,
2013-03-21 15:03:00,29.2,25.6,29.62,NNE,32,0.0,133.3,86,0.00,,---,0.00,VWS V14.01,2013-03-21 19:03:00,
2013-03-21 15:08:00,29.3,26.0,29.62,NNE,32,0.4,133.3,87,0.00,,---,0.00,VWS V14.01,2013-03-21 19:08:00,
2013-03-21 15:13:00,29.4,26.9,29.61,North,359,4.5,133.3,90,0.00,,---,0.00,VWS V14.01,2013-03-21 19:13:00,
2013-03-21 15:18:00,29.6,26.6,29.61,North,359,1.1,133.3,88,0.00,,---,0.00,VWS V14.01,2013-03-21 19:18:00,
2013-03-21 15:23:00,29.3,25.2,29.61,SE,127,3.4,133.3,84,0.00,,---,0.00,VWS V14.01,2013-03-21 19:23:00,
2013-03-21 15:28:00,30.2,26.1,29.60,South,181,0.8,133.3,84,0.00,,---,0.00,VWS V14.01,2013-03-21 19:28:00,
2013-03-21 15:33:00,30.7,26.5,29.59,ESE,110,0.8,133.3,84,0.00,,---,0.00,VWS V14.01,2013-03-21 19:33:00,
2013-03-21 15:38:00,30.7,25.6,29.60,ENE,73,0.9,133.3,81,0.00,,---,0.00,VWS V14.01,2013-03-21 19:38:00,
2013-03-21 15:43:00,31.8,26.3,29.60,SSE,158,2.0,133.3,80,0.00,,---,0.00,VWS V14.01,2013-03-21 19:43:00,
2013-03-21 15:48:00,31.7,25.6,29.60,East,96,3.0,133.3,78,0.00,,---,0.00,VWS V14.01,2013-03-21 19:48:00,
2013-03-21 15:53:00,32.8,27.2,29.59,NNE,27,2.6,133.3,80,0.00,,---,0.00,VWS V14.01,2013-03-21 19:53:00,
2013-03-21 15:58:00,32.3,24.7,29.59,NNE,31,0.8,133.3,73,0.00,,---,0.00,VWS V14.01,2013-03-21 19:58:00,
2013-03-21 16:03:00,32.8,25.4,29.59,South,172,2.0,133.3,74,0.00,,---,0.00,VWS V14.01,2013-03-21 20:03:00,
2013-03-21 16:08:00,32.5,25.0,29.59,SE,146,4.7,133.3,73,0.00,,---,0.00,VWS V14.01,2013-03-21 20:08:00,
2013-03-21 16:13:00,33.1,25.5,29.59,NNE,28,1.4,133.3,73,0.00,,---,0.00,VWS V14.01,2013-03-21 20:13:00,
2013-03-21 16:18:00,34.0,26.1,29.59,South,174,1.5,133.3,72,0.00,,---,0.00,VWS V14.01,2013-03-21 20:18:00,
2013-03-21 16:23:00,34.0,24.7,29.59,North,359,2.1,133.3,68,0.00,,---,0.00,VWS V14.01,2013-03-21 20:23:00,
2013-03-21 16:28:00,33.9,23.8,29.59,NNW,336,6.0,133.3,66,0.00,,---,0.00,VWS V14.01,2013-03-21 20:28:00,
2013-03-21 16:33:00,34.1,24.5,29.58,ENE,63,3.7,133.3,67,0.00,,---,0.00,VWS V14.01,2013-03-21 20:33:00,
2013-03-21 16:38:00,34.2,23.7,29.58,North,7,8.9,133.3,65,0.00,,---,0.00,VWS V14.01,2013-03-21 20:38:00,
2013-03-21 16:43:00,35.2,25.0,29.58,North,359,4.1,133.3,66,0.00,,---,0.00,VWS V14.01,2013-03-21 20:43:00,
2013-03-21 16:48:00,35.2,24.9,29.58,SSE,156,3.4,133.3,66,0.00,,---,0.00,VWS V14.01,2013-03-21 20:48:00,
2013-03-21 16:53:00,35.1,25.0,29.58,East,90,0.0,133.3,66,0.00,,---,0.00,VWS V14.01,2013-03-21 20:53:00,
2013-03-21 16:58:00,35.3,25.0,29.58,SSW,211,2.7,133.3,66,0.00,,---,0.00,VWS V14.01,2013-03-21 20:58:00,
2013-03-21 17:03:00,35.5,19.7,29.58,North,7,14.3,133.3,52,0.00,,---,0.00,VWS V14.01,2013-03-21 21:03:00,
2013-03-21 17:08:00,36.0,16.5,29.59,NNW,330,8.9,133.3,45,0.00,,---,0.00,VWS V14.01,2013-03-21 21:08:00,
2013-03-21 17:13:00,35.8,16.0,29.59,North,353,7.8,133.3,44,0.00,,---,0.00,VWS V14.01,2013-03-21 21:13:00,
2013-03-21 17:18:00,36.0,16.3,29.58,North,11,7.1,133.3,44,0.00,,---,0.00,VWS V14.01,2013-03-21 21:18:00,
2013-03-21 17:23:00,36.4,15.7,29.59,North,10,7.5,133.3,42,0.00,,---,0.00,VWS V14.01,2013-03-21 21:23:00,
2013-03-21 17:28:00,36.1,15.7,29.59,NNE,14,5.8,133.3,43,0.00,,---,0.00,VWS V14.01,2013-03-21 21:28:00,
2013-03-21 17:33:00,36.6,15.8,29.59,North,0,5.8,133.3,42,0.00,,---,0.00,VWS V14.01,2013-03-21 21:33:00,
2013-03-21 17:38:00,36.8,17.0,29.59,North,11,14.2,133.3,44,0.00,,---,0.00,VWS V14.01,2013-03-21 21:38:00,
2013-03-21 17:43:00,36.2,15.7,29.59,North,359,6.6,133.3,43,0.00,,---,0.00,VWS V14.01,2013-03-21 21:43:00,
2013-03-21 17:48:00,36.2,15.4,29.59,North,354,11.2,133.3,42,0.00,,---,0.00,VWS V14.01,2013-03-21 21:48:00,
2013-03-21 17:53:00,36.7,16.5,29.59,NW,307,11.1,133.3,43,0.00,,---,0.00,VWS V14.01,2013-03-21 21:53:00,
2013-03-21 17:58:00,35.8,15.4,29.59,NW,319,9.2,133.3,43,0.00,,---,0.00,VWS V14.01,2013-03-21 21:58:00,
2013-03-21 18:03:00,36.4,16.0,29.59,North,356,6.2,133.3,43,0.00,,---,0.00,VWS V14.01,2013-03-21 22:03:00,
2013-03-21 18:08:00,36.1,16.3,29.60,NNE,13,9.1,133.3,44,0.00,,---,0.00,VWS V14.01,2013-03-21 22:08:00,
2013-03-21 18:13:00,36.6,16.2,29.60,WNW,300,7.5,133.3,43,0.00,,---,0.00,VWS V14.01,2013-03-21 22:13:00,
2013-03-21 18:18:00,36.4,15.6,29.60,NW,307,7.7,133.3,42,0.00,,---,0.00,VWS V14.01,2013-03-21 22:18:00,
2013-03-21 18:20:00,35.2,14.3,29.62,NE,45,6.3,133.3,42,0.00,,---,0.00,VWS V14.01,2013-03-21 22:20:00,
2013-03-21 18:21:00,35.2,13.7,29.62,NNW,343,12.6,133.3,41,0.00,,---,0.00,VWS V14.01,2013-03-21 22:21:00,
2013-03-21 18:22:00,35.5,13.9,29.62,North,3,5.3,133.3,41,0.00,,---,0.00,VWS V14.01,2013-03-21 22:22:00,
2013-03-21 18:23:00,36.4,16.2,29.60,NW,311,10.1,133.3,43,0.00,,---,0.00,VWS V14.01,2013-03-21 22:23:00,
2013-03-21 18:28:00,36.5,15.6,29.60,North,353,7.8,133.3,42,0.00,,---,0.00,VWS V14.01,2013-03-21 22:28:00,
2013-03-21 18:33:00,35.9,13.9,29.61,North,352,10.3,133.3,40,0.00,,---,0.00,VWS V14.01,2013-03-21 22:33:00,
2013-03-21 18:38:00,36.4,14.9,29.61,WNW,297,9.6,133.3,41,0.00,,---,0.00,VWS V14.01,2013-03-21 22:38:00,
2013-03-21 18:43:00,36.3,15.1,29.61,NNE,20,13.1,133.3,41,0.00,,---,0.00,VWS V14.01,2013-03-21 22:43:00,
2013-03-21 18:48:00,36.4,14.9,29.61,North,359,1.6,133.3,41,0.00,,---,0.00,VWS V14.01,2013-03-21 22:48:00,
2013-03-21 18:53:00,36.0,13.8,29.61,NW,312,10.4,133.3,40,0.00,,---,0.00,VWS V14.01,2013-03-21 22:53:00,
2013-03-21 18:58:00,36.0,13.6,29.61,WNW,294,9.3,133.3,39,0.00,,---,0.00,VWS V14.01,2013-03-21 22:58:00,
2013-03-21 19:03:00,35.8,13.6,29.61,West,276,13.0,133.3,40,0.00,,---,0.00,VWS V14.01,2013-03-21 23:03:00,
2013-03-21 19:08:00,35.7,14.6,29.61,West,281,6.8,133.3,41,0.00,,---,0.00,VWS V14.01,2013-03-21 23:08:00,
2013-03-21 19:13:00,35.7,14.4,29.61,North,359,1.6,133.3,41,0.00,,---,0.00,VWS V14.01,2013-03-21 23:13:00,
2013-03-21 19:18:00,35.8,14.8,29.62,North,3,14.2,133.3,42,0.00,,---,0.00,VWS V14.01,2013-03-21 23:18:00,
2013-03-21 19:23:00,35.2,13.1,29.62,WNW,300,18.2,133.3,40,0.00,,---,0.00,VWS V14.01,2013-03-21 23:23:00,
2013-03-21 19:28:00,34.9,13.0,29.62,North,359,15.7,133.3,40,0.00,,---,0.00,VWS V14.01,2013-03-21 23:28:00,
2013-03-21 19:33:00,35.2,14.1,29.63,NW,311,7.9,133.3,41,0.00,,---,0.00,VWS V14.01,2013-03-21 23:33:00,
2013-03-21 19:38:00,34.9,14.1,29.63,WNW,291,9.8,133.3,42,0.00,,---,0.00,VWS V14.01,2013-03-21 23:38:00,
2013-03-21 19:43:00,34.7,14.2,29.63,North,7,7.3,133.3,42,0.00,,---,0.00,VWS V14.01,2013-03-21 23:43:00,
2013-03-21 19:48:00,34.6,14.6,29.63,NW,307,10.3,133.3,43,0.00,,---,0.00,VWS V14.01,2013-03-21 23:48:00,
2013-03-21 19:53:00,34.6,14.3,29.63,NE,48,3.3,133.3,43,0.00,,---,0.00,VWS V14.01,2013-03-21 23:53:00,
2013-03-21 19:58:00,34.6,14.3,29.63,NNW,343,10.7,133.3,43,0.00,,---,0.00,VWS V14.01,2013-03-21 23:58:00,
2013-03-21 20:03:00,34.3,14.3,29.64,NE,52,12.9,133.3,43,0.00,,---,0.00,VWS V14.01,2013-03-22 00:03:00,
2013-03-21 20:08:00,34.2,13.9,29.64,NW,321,12.3,133.3,43,0.00,,---,0.00,VWS V14.01,2013-03-22 00:08:00,
2013-03-21 20:13:00,33.8,13.4,29.64,NNW,335,8.6,133.3,42,0.00,,---,0.00,VWS V14.01,2013-03-22 00:13:00,
2013-03-21 20:18:00,34.0,13.9,29.64,WNW,300,7.5,133.3,43,0.00,,---,0.00,VWS V14.01,2013-03-22 00:18:00,
2013-03-21 20:23:00,34.0,14.0,29.64,West,281,9.7,133.3,43,0.00,,---,0.00,VWS V14.01,2013-03-22 00:23:00,
2013-03-21 20:28:00,33.5,14.3,29.65,North,1,4.8,133.3,45,0.00,,---,0.00,VWS V14.01,2013-03-22 00:28:00,
2013-03-21 20:33:00,33.6,15.3,29.65,North,359,1.7,133.3,47,0.00,,---,0.00,VWS V14.01,2013-03-22 00:33:00,
2013-03-21 20:36:00,29.8,14.5,29.68,West,264,1.4,133.3,52,0.00,,---,0.00,VWS V14.01,2013-03-22 00:36:00,
2013-03-21 20:38:00,33.0,15.2,29.65,North,359,0.0,133.3,47,0.00,,---,0.00,VWS V14.01,2013-03-22 00:38:00,
2013-03-21 20:41:00,31.9,16.4,29.67,WSW,257,7.6,133.3,52,0.00,,---,0.00,VWS V14.01,2013-03-22 00:41:00,
2013-03-21 20:42:00,31.6,16.2,29.67,WNW,290,11.9,133.3,52,0.00,,---,0.00,VWS V14.01,2013-03-22 00:42:00,
2013-03-21 20:43:00,32.9,15.9,29.65,NNW,333,12.1,133.3,49,0.00,,---,0.00,VWS V14.01,2013-03-22 00:43:00,
2013-03-21 20:44:00,31.3,15.6,29.67,North,359,11.2,133.3,52,0.00,,---,0.00,VWS V14.01,2013-03-22 00:44:00,
2013-03-21 20:45:00,31.5,15.8,29.67,North,10,11.0,133.3,52,0.00,,---,0.00,VWS V14.01,2013-03-22 00:45:00,
2013-03-21 20:48:00,33.0,16.5,29.66,WNW,294,17.8,133.3,50,0.00,,---,0.00,VWS V14.01,2013-03-22 00:48:00,
2013-03-21 20:53:00,33.1,16.9,29.65,WNW,288,11.6,133.3,51,0.00,,---,0.00,VWS V14.01,2013-03-22 00:53:00,
2013-03-21 20:58:00,32.6,16.8,29.66,NW,321,13.8,133.3,52,0.00,,---,0.00,VWS V14.01,2013-03-22 00:58:00,
2013-03-21 21:03:00,32.5,16.8,29.66,South,172,5.1,133.3,52,0.00,,---,0.00,VWS V14.01,2013-03-22 01:03:00,
2013-03-21 21:08:00,32.2,16.4,29.66,NNW,342,14.5,133.3,52,0.00,,---,0.00,VWS V14.01,2013-03-22 01:08:00,
2013-03-21 21:09:00,31.0,15.7,29.67,NW,326,9.6,133.3,53,0.00,,---,0.00,VWS V14.01,2013-03-22 01:09:00,
2013-03-21 21:13:00,31.9,16.2,29.66,NNW,336,8.3,133.3,52,0.00,,---,0.00,VWS V14.01,2013-03-22 01:13:00,
2013-03-21 21:18:00,32.1,16.6,29.66,WNW,295,14.4,133.3,52,0.00,,---,0.00,VWS V14.01,2013-03-22 01:18:00,
2013-03-21 21:20:00,29.7,16.5,29.70,North,359,0.0,133.3,58,0.00,,---,0.00,VWS V14.01,2013-03-22 01:20:00,
2013-03-21 21:23:00,31.6,16.5,29.66,NNE,13,9.6,133.3,53,0.00,,---,0.00,VWS V14.01,2013-03-22 01:23:00,
2013-03-21 21:28:00,32.0,16.6,29.67,NW,326,13.0,133.3,52,0.00,,---,0.00,VWS V14.01,2013-03-22 01:28:00,
2013-03-21 21:31:00,30.9,16.1,29.68,NNE,18,6.8,133.3,54,0.00,,---,0.00,VWS V14.01,2013-03-22 01:31:00,
2013-03-21 21:32:00,31.0,16.2,29.68,North,0,5.7,133.3,54,0.00,,---,0.00,VWS V14.01,2013-03-22 01:32:00,
2013-03-21 21:33:00,31.9,16.4,29.67,WNW,288,16.8,133.3,52,0.00,,---,0.00,VWS V14.01,2013-03-22 01:33:00,
2013-03-21 21:38:00,31.5,16.2,29.67,NNW,343,9.7,133.3,53,0.00,,---,0.00,VWS V14.01,2013-03-22 01:38:00,
2013-03-21 21:43:00,31.5,15.8,29.67,North,359,9.0,133.3,52,0.00,,---,0.00,VWS V14.01,2013-03-22 01:43:00,
2013-03-21 21:48:00,31.5,15.8,29.67,North,359,1.6,133.3,52,0.00,,---,0.00,VWS V14.01,2013-03-22 01:48:00,
2013-03-21 21:53:00,31.4,15.6,29.67,NW,321,11.7,133.3,52,0.00,,---,0.00,VWS V14.01,2013-03-22 01:53:00,
2013-03-21 21:58:00,31.3,15.7,29.67,North,359,0.8,133.3,52,0.00,,---,0.00,VWS V14.01,2013-03-22 01:58:00,
2013-03-21 22:03:00,31.3,15.8,29.67,WSW,252,15.0,133.3,52,0.00,,---,0.00,VWS V14.01,2013-03-22 02:03:00,
2013-03-21 22:08:00,31.0,15.6,29.68,WSW,257,5.4,133.3,52,0.00,,---,0.00,VWS V14.01,2013-03-22 02:08:00,
2013-03-21 22:13:00,31.5,16.4,29.68,NNW,330,4.3,133.3,53,0.00,,---,0.00,VWS V14.01,2013-03-22 02:13:00,
2013-03-21 22:18:00,31.2,16.3,29.68,NNE,13,10.9,133.3,54,0.00,,---,0.00,VWS V14.01,2013-03-22 02:18:00,
2013-03-21 22:23:00,31.0,16.1,29.68,North,350,8.6,133.3,54,0.00,,---,0.00,VWS V14.01,2013-03-22 02:23:00,
2013-03-21 22:28:00,30.5,15.8,29.68,NNE,31,5.3,133.3,54,0.00,,---,0.00,VWS V14.01,2013-03-22 02:28:00,
2013-03-21 22:33:00,30.1,15.4,29.68,NE,39,9.6,133.3,54,0.00,,---,0.00,VWS V14.01,2013-03-22 02:33:00,
2013-03-21 22:38:00,30.4,15.7,29.68,North,359,9.6,133.3,54,0.00,,---,0.00,VWS V14.01,2013-03-22 02:38:00,
2013-03-21 22:39:00,30.3,16.9,29.70,North,359,0.0,133.3,57,0.00,,---,0.00,VWS V14.01,2013-03-22 02:39:00,
2013-03-21 22:40:00,30.1,16.8,29.69,North,359,0.0,133.3,57,0.00,,---,0.00,VWS V14.01,2013-03-22 02:40:00,
2013-03-21 22:43:00,30.3,15.5,29.69,North,359,3.9,133.3,54,0.00,,---,0.00,VWS V14.01,2013-03-22 02:43:00,
2013-03-21 22:48:00,30.1,15.4,29.68,NNW,346,1.4,133.3,54,0.00,,---,0.00,VWS V14.01,2013-03-22 02:48:00,
2013-03-21 22:53:00,30.7,16.1,29.69,North,359,9.0,133.3,54,0.00,,---,0.00,VWS V14.01,2013-03-22 02:53:00,
2013-03-21 22:56:00,29.7,16.5,29.70,North,359,0.0,133.3,58,0.00,,---,0.00,VWS V14.01,2013-03-22 02:56:00,
2013-03-21 22:57:00,30.1,17.0,29.70,North,359,6.6,133.3,58,0.00,,---,0.00,VWS V14.01,2013-03-22 02:57:00,
2013-03-21 22:58:00,30.3,15.9,29.68,North,359,6.8,133.3,54,0.00,,---,0.00,VWS V14.01,2013-03-22 02:58:00,
2013-03-21 23:02:00,29.6,16.5,29.71,North,1,12.6,133.3,58,0.00,,---,0.00,VWS V14.01,2013-03-22 03:02:00,
2013-03-21 23:03:00,30.9,16.6,29.69,NE,49,7.6,133.3,55,0.00,,---,0.00,VWS V14.01,2013-03-22 03:03:00,
2013-03-21 23:08:00,30.0,15.9,29.69,NE,42,8.3,133.3,55,0.00,,---,0.00,VWS V14.01,2013-03-22 03:08:00,
2013-03-21 23:10:00,29.9,16.5,29.69,North,359,0.0,133.3,57,0.00,,---,0.00,VWS V14.01,2013-03-22 03:10:00,
2013-03-21 23:13:00,30.2,16.1,29.69,North,359,0.2,133.3,55,0.00,,---,0.00,VWS V14.01,2013-03-22 03:13:00,
2013-03-21 23:18:00,30.4,16.4,29.69,North,350,8.1,133.3,56,0.00,,---,0.00,VWS V14.01,2013-03-22 03:18:00,
2013-03-21 23:23:00,29.8,15.9,29.69,NNE,14,6.3,133.3,56,0.00,,---,0.00,VWS V14.01,2013-03-22 03:23:00,
2013-03-21 23:28:00,29.8,16.0,29.69,NE,45,8.5,133.3,56,0.00,,---,0.00,VWS V14.01,2013-03-22 03:28:00,
2013-03-21 23:33:00,30.4,16.8,29.69,North,359,2.8,133.3,56,0.00,,---,0.00,VWS V14.01,2013-03-22 03:33:00,
2013-03-21 23:38:00,30.1,16.8,29.70,North,359,5.1,133.3,57,0.00,,---,0.00,VWS V14.01,2013-03-22 03:38:00,
2013-03-21 23:43:00,29.5,16.4,29.70,NNE,18,12.7,133.3,58,0.00,,---,0.00,VWS V14.01,2013-03-22 03:43:00,
2013-03-21 23:48:00,29.9,16.8,29.70,North,359,0.0,133.3,58,0.00,,---,0.00,VWS V14.01,2013-03-22 03:48:00,
2013-03-21 23:53:00,29.8,16.6,29.70,North,359,0.0,133.3,57,0.00,,---,0.00,VWS V14.01,2013-03-22 03:53:00,
2013-03-21 23:58:00,29.9,16.8,29.70,North,359,0.2,133.3,58,0.00,,---,0.00,VWS V14.01,2013-03-22 03:58:00,